DW2753 Victoria BC CA current weather conditions

sailwx.info

Wind from 336

Air temperature 7.2° C
Dewpoint 3.8° C

Last reported at 2019-Nov-21 18:09 UTC.
Time now 2019-Nov-21 18:51 UTC

Location: N 48°30' W 123°24'.
View on Google Maps.

See reports from other nearby stations

  
Tides and Currents Weather Stations Pressure Air Temp Water Temp Dewpoint Dewpoint Depression Visibility Wind Speed Wind Dir Waves Ship Positions
date/time (UTC)wind fromknots sea level pressurealtimeterstation pressurevisibilityair tempwater tempwave heightnotes
2019-Nov-21 18:09 336 7.2
2019-Nov-21 18:04 336 7.2
2019-Nov-21 17:54 336 6.7
2019-Nov-21 17:49 336 0 gusting 2 6.1
2019-Nov-21 17:44 336 6.1
2019-Nov-21 17:39 336 5.6
2019-Nov-21 17:34 336 5.6
2019-Nov-21 17:29 359 5.0
2019-Nov-21 17:24 336 5.0
2019-Nov-21 17:19 336 4.4
2019-Nov-21 17:14 336 4.4
2019-Nov-21 17:09 336 4.4
2019-Nov-21 17:04 359 3.9
2019-Nov-21 16:59 359 3.3
2019-Nov-21 16:54 336 3.3
2019-Nov-21 16:49 336 3.3
2019-Nov-21 16:44 336 2.8
2019-Nov-21 16:39 336 2.8
2019-Nov-21 16:34 336 2.8
2019-Nov-21 16:09 336 2.2
2019-Nov-21 16:04 336 1.7
2019-Nov-21 15:59 336 1.7
2019-Nov-21 15:54 336 2.2
2019-Nov-21 15:49 336 2.2
2019-Nov-21 15:44 336 2.2
2019-Nov-21 15:39 335 1.7
2019-Nov-21 15:34 335 1.1
2019-Nov-21 15:29 359 1.1
2019-Nov-21 15:24 335 1.1
2019-Nov-21 15:19 335 1.1
2019-Nov-21 15:14 336 1.1
2019-Nov-21 15:09 335 1.1
2019-Nov-21 15:04 359 1.1
2019-Nov-21 14:59 335 1.1
2019-Nov-21 14:54 335 1.1
2019-Nov-21 14:49 335 1.1
2019-Nov-21 14:44 335 1.1
2019-Nov-21 14:39 359 1.7
2019-Nov-21 14:34 335 1.7
2019-Nov-21 14:29 335 1.7
2019-Nov-21 14:24 335 1.7
2019-Nov-21 14:19 335 1.7
2019-Nov-21 14:14 335 2.2
2019-Nov-21 14:09 335 2.2
2019-Nov-21 14:04 335 2.8
2019-Nov-21 13:59 335 2.8
2019-Nov-21 13:54 359 2.8
2019-Nov-21 13:49 335 2.2
2019-Nov-21 13:44 335 2.2
2019-Nov-21 13:39 335 2.2
2019-Nov-21 13:34 335 2.2
2019-Nov-21 13:29 335 2.2
2019-Nov-21 13:24 335 2.2
2019-Nov-21 13:19 335 2.2
2019-Nov-21 13:14 336 2.2
2019-Nov-21 13:09 335 2.2
2019-Nov-21 13:04 335 2.2
2019-Nov-21 12:59 335 2.2
2019-Nov-21 12:54 335 2.2
2019-Nov-21 12:49 335 2.2
2019-Nov-21 12:44 359 1.7
2019-Nov-21 12:39 335 1.7
2019-Nov-21 12:34 335 1.7
2019-Nov-21 12:29 335 1.7
2019-Nov-21 12:24 335 1.7
2019-Nov-21 12:19 335 1.7
2019-Nov-21 12:14 336 1.7
2019-Nov-21 12:09 359 1.7
2019-Nov-21 12:04 335 1.7
2019-Nov-21 11:59 335 1.7
2019-Nov-21 11:54 335 1.7
2019-Nov-21 11:49 359 1.7
2019-Nov-21 11:44 359 1.7
2019-Nov-21 11:39 335 1.7
2019-Nov-21 11:34 335 1.1
2019-Nov-21 11:29 335 1.1
2019-Nov-21 11:24 335 1.7
2019-Nov-21 11:19 335 1.7
2019-Nov-21 11:14 335 1.7
2019-Nov-21 11:09 359 1.7
2019-Nov-21 11:04 336 1.7
2019-Nov-21 10:59 335 1.7
2019-Nov-21 10:54 335 2.2
2019-Nov-21 10:49 336 2.2
2019-Nov-21 10:44 359 2.2
2019-Nov-21 10:39 335 2.2
2019-Nov-21 10:34 335 2.2
2019-Nov-21 10:29 336 2.2
2019-Nov-21 10:24 335 2.2
2019-Nov-21 10:19 359 2.2
2019-Nov-21 10:14 335 2.8
2019-Nov-21 10:09 359 2.8
2019-Nov-21 10:04 335 2.8
2019-Nov-21 09:59 335 2.8
2019-Nov-21 09:54 335 2.2
2019-Nov-21 09:49 336 2.2
2019-Nov-21 09:44 335 2.2
2019-Nov-21 09:39 335 2.2
2019-Nov-21 09:34 335 2.2
2019-Nov-21 09:29 359 2.2
2019-Nov-21 09:24 335 2.2
2019-Nov-21 09:19 335 2.2
2019-Nov-21 09:14 335 2.2
2019-Nov-21 09:09 335 2.2
2019-Nov-21 09:04 335 2.2
2019-Nov-21 08:59 335 2.2
2019-Nov-21 08:54 335 2.2
2019-Nov-21 08:49 335 2.8
2019-Nov-21 08:44 335 2.8
2019-Nov-21 08:39 336 2.8
2019-Nov-21 08:34 335 2.8
2019-Nov-21 08:29 335 2.8
2019-Nov-21 08:24 359 2.8
2019-Nov-21 08:19 359 2.2
2019-Nov-21 08:14 336 2.2
2019-Nov-21 08:09 335 2.2
2019-Nov-21 08:04 335 2.2
2019-Nov-21 07:59 335 2.2
2019-Nov-21 07:54 335 2.2
2019-Nov-21 07:49 335 2.8
2019-Nov-21 07:44 335 2.8
2019-Nov-21 07:39 335 2.8
2019-Nov-21 07:34 335 2.2
2019-Nov-21 07:29 335 2.2
2019-Nov-21 07:24 359 2.2
2019-Nov-21 07:19 335 2.8
2019-Nov-21 07:14 335 2.2
2019-Nov-21 07:09 335 2.2
2019-Nov-21 07:04 335 2.2
2019-Nov-21 06:59 335 2.2
2019-Nov-21 06:54 335 2.2
2019-Nov-21 06:49 335 2.2
2019-Nov-21 06:44 335 2.2
2019-Nov-21 06:39 335 2.2
2019-Nov-21 06:34 335 2.2
2019-Nov-21 06:29 335 2.2
2019-Nov-21 06:24 335 2.2
2019-Nov-21 06:19 359 2.8
2019-Nov-21 06:14 335 2.8
2019-Nov-21 06:09 335 2.8
2019-Nov-21 06:04 335 2.8
2019-Nov-21 05:59 335 2.8
2019-Nov-21 05:54 335 2.8
2019-Nov-21 05:49 335 2.8
2019-Nov-21 05:44 335 2.8
2019-Nov-21 05:39 335 2.2
2019-Nov-21 05:34 335 2.8
2019-Nov-21 05:29 335 2.8
2019-Nov-21 05:24 336 2.8
2019-Nov-21 05:19 335 2.8
2019-Nov-21 05:14 359 2.8
2019-Nov-21 05:09 335 2.8
2019-Nov-21 05:04 335 2.8
2019-Nov-21 04:59 335 2.8
2019-Nov-21 04:54 335 3.3
2019-Nov-21 04:49 359 3.3
2019-Nov-21 04:44 335 3.3
2019-Nov-21 04:39 335 3.3
2019-Nov-21 04:34 335 3.3
2019-Nov-21 04:29 336 3.3
2019-Nov-21 04:24 335 3.9
2019-Nov-21 04:19 335 3.9
2019-Nov-21 04:14 335 3.9
2019-Nov-21 04:09 335 3.9
2019-Nov-21 04:04 335 3.9
2019-Nov-21 03:59 335 3.9
2019-Nov-21 03:54 359 3.9
2019-Nov-21 03:49 335 3.9
2019-Nov-21 03:44 335 3.9
2019-Nov-21 03:39 335 3.9
2019-Nov-21 03:34 335 3.9
2019-Nov-21 03:29 335 3.9
2019-Nov-21 03:24 335 3.9
2019-Nov-21 03:19 335 3.9
2019-Nov-21 03:14 335 3.3
2019-Nov-21 03:09 335 3.3
2019-Nov-21 03:04 335 3.3
2019-Nov-21 02:59 335 3.3
2019-Nov-21 02:54 335 3.3
2019-Nov-21 02:49 335 3.3
2019-Nov-21 02:44 359 3.3
2019-Nov-21 02:39 335 3.3
2019-Nov-21 02:34 359 3.3
2019-Nov-21 02:29 335 0 gusting 2 3.9
2019-Nov-21 02:24 336 0 gusting 2 3.9
2019-Nov-21 02:19 086 3.9
2019-Nov-21 02:14 086 3.9
2019-Nov-21 02:09 086 3.9
2019-Nov-21 02:04 086 3.9
2019-Nov-21 01:59 086 4.4
2019-Nov-21 01:54 086 4.4
2019-Nov-21 01:49 086 4.4
2019-Nov-21 01:44 087 4.4
2019-Nov-21 01:39 086 4.4
2019-Nov-21 01:34 086 5.0
2019-Nov-21 01:29 086 5.0
2019-Nov-21 01:24 086 5.0
2019-Nov-21 01:19 086 5.6
2019-Nov-21 01:14 087 5.6
2019-Nov-21 01:09 086 5.6
2019-Nov-21 01:04 086 6.1
2019-Nov-21 00:59 086 6.1
2019-Nov-21 00:54 086 6.1
2019-Nov-21 00:49 086 6.7
2019-Nov-21 00:44 086 6.7
2019-Nov-21 00:39 086 7.2
2019-Nov-21 00:34 086 7.2
2019-Nov-21 00:29 086 7.8
2019-Nov-21 00:24 086 7.8
2019-Nov-21 00:18 086 8.3
2019-Nov-21 00:13 086 8.3
2019-Nov-21 00:08 086 8.9
2019-Nov-21 00:03 086 8.9
2019-Nov-20 23:58 087 8.9
2019-Nov-20 23:53 086 9.4
2019-Nov-20 23:48 087 9.4
2019-Nov-20 23:43 086 9.4
2019-Nov-20 23:38 087 9.4
2019-Nov-20 23:33 087 9.4
2019-Nov-20 23:28 086 9.4
2019-Nov-20 23:23 087 0 gusting 4 9.4
2019-Nov-20 23:18 087 0 gusting 4 9.4
2019-Nov-20 23:13 084 0 gusting 4 9.4
2019-Nov-20 23:08 087 0 gusting 4 9.4
2019-Nov-20 23:03 043 0 gusting 4 9.4
2019-Nov-20 22:58 074 0 gusting 3 9.4
2019-Nov-20 22:53 044 1 gusting 3 10.0
2019-Nov-20 22:48 045 1 gusting 3 10.0
2019-Nov-20 22:43 045 0 gusting 3 10.0
2019-Nov-20 22:38 045 10.6
2019-Nov-20 22:33 045 0 gusting 2 10.6
2019-Nov-20 22:28 045 0 gusting 2 10.6
2019-Nov-20 22:23 045 0 gusting 2 10.6
2019-Nov-20 22:18 045 11.1
2019-Nov-20 22:13 045 11.1
2019-Nov-20 22:08 045 11.1
2019-Nov-20 22:03 045 10.6
2019-Nov-20 21:58 045 0 gusting 2 10.6
2019-Nov-20 21:53 045 0 gusting 2 10.6
2019-Nov-20 21:48 045 10.6
2019-Nov-20 21:43 045 0 gusting 3 10.6
2019-Nov-20 21:38 045 11.1
2019-Nov-20 21:33 046 11.1
2019-Nov-20 21:28 045 0 gusting 2 10.6
2019-Nov-20 21:23 045 0 gusting 2 10.6
2019-Nov-20 21:18 046 10.6
2019-Nov-20 21:13 045 10.6
2019-Nov-20 21:08 045 10.6
2019-Nov-20 21:03 045 10.6
2019-Nov-20 20:58 045 0 gusting 3 10.6
2019-Nov-20 20:53 045 0 gusting 3 10.6
2019-Nov-20 20:48 045 10.6
2019-Nov-20 20:43 045 10.6
2019-Nov-20 20:38 060 10.6
2019-Nov-20 20:33 058 10.0
2019-Nov-20 20:28 068 0 gusting 5 10.0
2019-Nov-20 20:23 095 1 gusting 5 10.0
2019-Nov-20 20:18 054 0 gusting 3 10.0
2019-Nov-20 20:13 049 0 gusting 2 10.0
2019-Nov-20 20:08 048 0 gusting 3 10.0
2019-Nov-20 20:03 048 0 gusting 3 10.6
2019-Nov-20 19:58 053 0 gusting 3 10.0
2019-Nov-20 19:53 054 1 gusting 3 10.0
2019-Nov-20 19:48 054 0 gusting 3 10.0
2019-Nov-20 19:43 054 0 gusting 3 10.0
2019-Nov-20 19:38 054 0 gusting 2 10.0
2019-Nov-20 19:33 054 10.6
2019-Nov-20 19:28 054 10.6
2019-Nov-20 19:23 054 10.0
2019-Nov-20 19:18 054 10.0
2019-Nov-20 19:13 054 0 gusting 3 10.0
2019-Nov-20 19:08 054 0 gusting 2 10.0
2019-Nov-20 19:03 054 0 gusting 2 9.4
2019-Nov-20 18:58 056 0 gusting 2 9.4
2019-Nov-20 18:53 313 9.4
2019-Nov-20 18:48 306 10.0
2019-Nov-20 18:43 307 9.4
2019-Nov-20 18:38 307 9.4
2019-Nov-20 18:33 295 8.9
2019-Nov-20 18:28 058 8.9
2019-Nov-20 18:23 312 8.9
2019-Nov-20 18:18 313 8.9
2019-Nov-20 18:13 045 8.9
2019-Nov-20 18:08 344 8.3
2019-Nov-20 18:03 344 8.3
2019-Nov-20 17:58 295 8.3
2019-Nov-20 17:53 295 7.8
2019-Nov-20 17:48 295 7.8
2019-Nov-20 17:43 323 7.8
2019-Nov-20 17:38 311 7.2
2019-Nov-20 17:33 304 0 gusting 4 7.2
2019-Nov-20 17:28 324 1 gusting 5 7.2
2019-Nov-20 17:23 285 1 gusting 5 6.7
2019-Nov-20 17:18 276 1 gusting 4 6.7
2019-Nov-20 17:13 314 1 gusting 5 6.7
2019-Nov-20 17:08 325 0 gusting 5 6.1
2019-Nov-20 17:03 314 6.1
2019-Nov-20 16:58 294 5.6
2019-Nov-20 16:53 293 5.6
2019-Nov-20 16:48 293 5.6
2019-Nov-20 16:43 294 5.6
2019-Nov-20 16:38 293 5.6
2019-Nov-20 16:33 294 5.6
2019-Nov-20 16:28 293 5.6
2019-Nov-20 16:23 293 5.6
2019-Nov-20 16:18 294 5.6
2019-Nov-20 16:13 293 5.6
2019-Nov-20 16:08 293 5.6
2019-Nov-20 16:03 309 5.6
2019-Nov-20 15:58 309 5.6
2019-Nov-20 15:53 309 5.6
2019-Nov-20 15:48 309 5.6
2019-Nov-20 15:43 309 5.6
2019-Nov-20 15:38 309 5.6
2019-Nov-20 15:33 309 5.6
2019-Nov-20 15:28 309 6.1
2019-Nov-20 15:23 309 6.1
2019-Nov-20 15:18 309 0 gusting 6 6.1
2019-Nov-20 15:13 312 1 gusting 6 6.1
2019-Nov-20 15:08 314 1 gusting 5 6.1
2019-Nov-20 15:03 320 1 gusting 5 6.1
2019-Nov-20 14:58 311 0 gusting 4 6.1
2019-Nov-20 14:53 309 6.1
2019-Nov-20 14:48 354 6.1
2019-Nov-20 14:43 306 5.6
2019-Nov-20 14:38 308 5.6
2019-Nov-20 14:33 308 5.6
2019-Nov-20 14:28 308 5.6
2019-Nov-20 14:23 308 5.6
2019-Nov-20 14:18 308 5.6
2019-Nov-20 14:13 308 0 gusting 2 5.6
2019-Nov-20 14:08 319 5.6
2019-Nov-20 14:03 315 5.6
2019-Nov-20 13:58 312 5.6
2019-Nov-20 13:53 318 0 gusting 4 5.6
2019-Nov-20 13:48 308 1 gusting 4 5.6
2019-Nov-20 13:43 304 1 gusting 4 5.6
2019-Nov-20 13:38 306 1 gusting 6 5.6
2019-Nov-20 13:33 295 1 gusting 6 5.6
2019-Nov-20 13:28 315 0 gusting 6 5.6
2019-Nov-20 13:23 318 0 gusting 3 5.6
2019-Nov-20 13:18 318 0 gusting 3 5.6
2019-Nov-20 13:13 291 0 gusting 6 5.6
2019-Nov-20 13:08 303 0 gusting 6 5.6
2019-Nov-20 13:03 303 0 gusting 6 5.6
2019-Nov-20 12:58 310 5.6
2019-Nov-20 12:53 313 5.6
2019-Nov-20 12:48 312 5.6
2019-Nov-20 12:43 313 5.6
2019-Nov-20 12:38 313 5.6
2019-Nov-20 12:33 311 5.6
2019-Nov-20 12:28 311 6.1
2019-Nov-20 12:23 311 6.1
2019-Nov-20 12:18 309 6.1
2019-Nov-20 12:13 359 6.1
2019-Nov-20 12:08 307 6.1
2019-Nov-20 12:03 305 6.7
2019-Nov-20 11:58 295 0 gusting 3 6.1
2019-Nov-20 11:53 317 0 gusting 4 6.1
2019-Nov-20 11:48 306 6.1
2019-Nov-20 11:43 359 6.1
2019-Nov-20 11:38 315 0 gusting 3 6.1
2019-Nov-20 11:33 310 6.1
2019-Nov-20 11:28 317 6.1
2019-Nov-20 11:23 317 6.1
2019-Nov-20 11:18 359 0 gusting 4 6.1
2019-Nov-20 11:13 316 5.6
2019-Nov-20 11:08 344 5.6
2019-Nov-20 11:03 344 5.6
2019-Nov-20 10:58 359 5.6
2019-Nov-20 10:53 343 6.1
2019-Nov-20 10:48 004 6.1
2019-Nov-20 10:43 004 6.1
2019-Nov-20 10:38 004 6.1
2019-Nov-20 10:33 004 6.1
2019-Nov-20 10:28 303 6.1
2019-Nov-20 10:23 306 6.1
2019-Nov-20 10:18 306 5.6
2019-Nov-20 10:13 306 6.1
2019-Nov-20 10:08 306 6.1
2019-Nov-20 10:03 306 6.1
2019-Nov-20 09:58 306 6.1
2019-Nov-20 09:53 314 6.1
2019-Nov-20 09:48 315 6.1
2019-Nov-20 09:43 299 6.1
2019-Nov-20 09:38 296 6.1
2019-Nov-20 09:33 315 6.1
2019-Nov-20 09:28 320 6.1
2019-Nov-20 09:23 320 6.1
2019-Nov-20 09:18 320 6.1
2019-Nov-20 09:13 320 6.1
2019-Nov-20 09:08 320 6.1
2019-Nov-20 09:03 318 6.1
2019-Nov-20 08:58 318 6.1
2019-Nov-20 08:53 359 6.1
2019-Nov-20 08:48 318 6.1
2019-Nov-20 08:43 318 6.1
2019-Nov-20 08:38 318 6.1
2019-Nov-20 08:33 312 6.1
2019-Nov-20 08:28 312 6.7
2019-Nov-20 08:23 312 6.7
2019-Nov-20 08:18 312 6.7
2019-Nov-20 08:13 312 6.7
2019-Nov-20 08:08 312 6.7
2019-Nov-20 08:03 359 6.7
2019-Nov-20 07:58 307 6.7
2019-Nov-20 07:53 307 6.7
2019-Nov-20 07:48 307 6.7
2019-Nov-20 07:43 313 6.7
2019-Nov-20 07:38 313 6.1
2019-Nov-20 07:33 257 6.1
2019-Nov-20 07:28 257 6.1
2019-Nov-20 07:23 257 6.1
2019-Nov-20 07:18 256 6.1
2019-Nov-20 07:13 256 6.1
2019-Nov-20 07:08 257 6.1
2019-Nov-20 07:03 257 6.1
2019-Nov-20 06:58 256 6.1
2019-Nov-20 06:53 256 5.6
2019-Nov-20 06:48 256 5.6
2019-Nov-20 06:43 257 5.6
2019-Nov-20 06:38 257 5.6
2019-Nov-20 06:33 257 5.6
2019-Nov-20 06:28 256 5.6
2019-Nov-20 06:23 257 5.0
2019-Nov-20 06:18 257 5.0
2019-Nov-20 06:13 256 5.0
2019-Nov-20 06:08 257 4.4
2019-Nov-20 06:03 258 4.4
2019-Nov-20 05:58 256 3.3
2019-Nov-20 05:53 257 3.3
2019-Nov-20 05:47 256 3.3
2019-Nov-20 05:42 359 3.3
2019-Nov-20 05:37 256 3.3
2019-Nov-20 05:32 256 3.3
2019-Nov-20 05:27 256 3.3
2019-Nov-20 05:22 256 3.3
2019-Nov-20 05:17 256 3.3
2019-Nov-20 05:12 257 3.3
2019-Nov-20 05:07 258 3.9
2019-Nov-20 05:02 257 3.9
2019-Nov-20 04:57 256 3.9
2019-Nov-20 04:52 359 3.9
2019-Nov-20 04:47 359 3.9
2019-Nov-20 04:42 359 3.9
2019-Nov-20 04:37 257 3.9
2019-Nov-20 04:32 359 3.9
2019-Nov-20 04:27 256 3.9
2019-Nov-20 04:22 257 3.9
2019-Nov-20 04:17 256 3.9
2019-Nov-20 04:12 359 3.9
2019-Nov-20 04:07 256 4.4
2019-Nov-20 04:02 256 4.4
2019-Nov-20 03:57 257 4.4
2019-Nov-20 03:52 256 4.4
2019-Nov-20 03:47 256 4.4
2019-Nov-20 03:42 257 4.4
2019-Nov-20 03:37 257 4.4
2019-Nov-20 03:32 257 4.4
2019-Nov-20 03:27 257 4.4
2019-Nov-20 03:22 256 4.4
2019-Nov-20 03:17 256 4.4
2019-Nov-20 03:12 256 5.0
2019-Nov-20 03:07 256 5.0
2019-Nov-20 03:02 256 5.0
2019-Nov-20 02:57 256 5.0
2019-Nov-20 02:52 257 5.0
2019-Nov-20 02:47 256 5.0
2019-Nov-20 02:42 256 5.6
2019-Nov-20 02:37 256 5.6
2019-Nov-20 02:32 256 5.6
2019-Nov-20 02:27 257 5.6
2019-Nov-20 02:22 256 5.6
2019-Nov-20 02:17 256 5.6
2019-Nov-20 02:12 257 6.1
2019-Nov-20 02:07 257 6.1
2019-Nov-20 02:02 256 6.1
2019-Nov-20 01:57 256 6.1
2019-Nov-20 01:52 256 6.1
2019-Nov-20 01:47 256 6.1
2019-Nov-20 01:42 257 6.1
2019-Nov-20 01:37 257 6.1
2019-Nov-20 01:32 256 6.7
2019-Nov-20 01:27 322 6.7
2019-Nov-20 01:22 322 6.7
2019-Nov-20 01:17 322 7.2
2019-Nov-20 01:12 359 7.2
2019-Nov-20 01:07 322 7.2
2019-Nov-20 01:02 322 7.8
2019-Nov-20 00:57 322 7.8
2019-Nov-20 00:52 322 7.8
2019-Nov-20 00:47 322 8.3
2019-Nov-20 00:42 322 8.3
2019-Nov-20 00:37 322 8.9
2019-Nov-20 00:32 322 8.9
2019-Nov-20 00:27 322 9.4
2019-Nov-20 00:22 322 10.0
2019-Nov-20 00:17 322 10.6
2019-Nov-20 00:12 322 10.6
2019-Nov-20 00:07 322 11.1
2019-Nov-20 00:02 322 11.1
2019-Nov-19 23:57 322 11.1
2019-Nov-19 23:52 322 11.1
2019-Nov-19 23:47 322 11.1
2019-Nov-19 23:42 322 11.7
2019-Nov-19 23:37 322 11.7
2019-Nov-19 23:32 322 11.7
2019-Nov-19 23:27 322 11.7
2019-Nov-19 23:22 322 11.7
2019-Nov-19 23:17 321 12.2
2019-Nov-19 23:12 321 12.2
2019-Nov-19 23:07 321 12.2
2019-Nov-19 23:02 321 12.2
2019-Nov-19 22:57 321 11.7
2019-Nov-19 22:52 321 11.7
2019-Nov-19 22:47 321 11.7
2019-Nov-19 22:42 311 0 gusting 5 11.7
2019-Nov-19 22:37 314 1 gusting 6 11.1
2019-Nov-19 22:32 295 1 gusting 6 11.1
2019-Nov-19 22:27 310 1 gusting 6 11.7
2019-Nov-19 22:22 283 1 gusting 6 11.1
2019-Nov-19 22:17 320 1 gusting 6 11.7
2019-Nov-19 22:12 314 0 gusting 3 11.7
2019-Nov-19 22:07 307 0 gusting 3 11.7
2019-Nov-19 22:02 300 0 gusting 3 11.7
2019-Nov-19 21:57 324 0 gusting 4 11.7
2019-Nov-19 21:52 284 11.7
2019-Nov-19 21:47 322 11.7
2019-Nov-19 21:42 322 11.7
2019-Nov-19 21:37 315 0 gusting 5 11.1
2019-Nov-19 21:32 305 0 gusting 5 11.1
2019-Nov-19 21:27 300 0 gusting 5 11.1
2019-Nov-19 21:22 316 0 gusting 5 11.1
2019-Nov-19 21:17 334 0 gusting 4 11.1
2019-Nov-19 21:12 359 1 gusting 4 11.1
2019-Nov-19 21:07 297 0 gusting 3 11.1
2019-Nov-19 21:02 328 11.1
2019-Nov-19 20:57 328 0 gusting 4 10.6
2019-Nov-19 20:52 320 0 gusting 4 10.6
2019-Nov-19 20:47 317 11.1
2019-Nov-19 20:42 317 11.1
2019-Nov-19 20:37 039 10.6
2019-Nov-19 20:32 040 10.6
2019-Nov-19 20:27 040 10.6
2019-Nov-19 20:22 040 10.6
2019-Nov-19 20:17 040 10.0
2019-Nov-19 20:12 301 9.4
2019-Nov-19 20:07 302 9.4
2019-Nov-19 20:02 270 9.4
2019-Nov-19 19:57 310 9.4
2019-Nov-19 19:52 310 9.4
2019-Nov-19 19:47 308 8.9
2019-Nov-19 19:42 037 8.9
2019-Nov-19 19:37 037 8.9
2019-Nov-19 19:32 063 8.9
2019-Nov-19 19:27 091 8.9
2019-Nov-19 19:22 092 8.9
2019-Nov-19 19:17 091 8.9
2019-Nov-19 19:12 091 8.9
2019-Nov-19 19:07 091 8.9
2019-Nov-19 19:02 091 8.3
2019-Nov-19 18:57 046 8.3
2019-Nov-19 18:52 359 8.3
2019-Nov-19 18:47 310 8.3
2019-Nov-19 18:42 244 8.3
2019-Nov-19 18:37 327 8.3
2019-Nov-19 18:32 359 8.3
2019-Nov-19 18:27 316 8.3
2019-Nov-19 18:22 359 7.8
2019-Nov-19 18:17 319 0 gusting 2 7.8
2019-Nov-19 18:12 306 7.8
2019-Nov-19 18:07 317 0 gusting 4 7.8
2019-Nov-19 18:02 314 0 gusting 4 7.8